Wetterdaten: Samstag, 16.04.2011
Datum Zeit Temp. Auen Feucht Auen Luftdruck Regen Richtung Richtung Windben
16.04.2011 00:00 0,2 C 81 % 1092,6 hPa 0,0 mm SW 214 1,1 km/h (1 Bft)
16.04.2011 00:05 0,2 C 81 % 1092,8 hPa 0,0 mm SW 225 1,1 km/h (1 Bft)
16.04.2011 00:10 0,2 C 81 % 1092,8 hPa 0,0 mm SW 225 1,1 km/h (1 Bft)
16.04.2011 00:15 0,0 C 81 % 1092,7 hPa 0,0 mm W-SW 254 3,6 km/h (1 Bft)
16.04.2011 00:20 -0,1 C 81 % 1092,8 hPa 0,0 mm W 268 3,6 km/h (1 Bft)
16.04.2011 00:25 -0,2 C 82 % 1092,9 hPa 0,0 mm W 276 2,5 km/h (1 Bft)
16.04.2011 00:30 0,0 C 82 % 1092,9 hPa 0,0 mm W 278 2,5 km/h (1 Bft)
16.04.2011 00:35 -0,2 C 82 % 1092,8 hPa 0,0 mm SW 227 2,5 km/h (1 Bft)
16.04.2011 00:40 -0,2 C 82 % 1092,9 hPa 0,0 mm W-SW 256 2,5 km/h (1 Bft)
16.04.2011 00:45 -0,2 C 82 % 1092,8 hPa 0,0 mm W 270 2,5 km/h (1 Bft)
16.04.2011 00:50 -0,2 C 83 % 1092,6 hPa 0,0 mm W 270 1,1 km/h (1 Bft)
16.04.2011 00:55 -0,3 C 83 % 1093,0 hPa 0,0 mm W-SW 245 2,5 km/h (1 Bft)
16.04.2011 01:00 -0,4 C 83 % 1092,9 hPa 0,0 mm W-SW 243 2,5 km/h (1 Bft)
16.04.2011 01:05 -0,4 C 83 % 1093,0 hPa 0,0 mm W 270 1,1 km/h (1 Bft)
16.04.2011 01:10 -0,4 C 83 % 1092,9 hPa 0,0 mm SW 225 1,1 km/h (1 Bft)
16.04.2011 01:15 -0,5 C 83 % 1092,9 hPa 0,0 mm SW 225 1,1 km/h (1 Bft)
16.04.2011 01:20 -0,5 C 83 % 1093,0 hPa 0,0 mm W-SW 255 2,5 km/h (1 Bft)
16.04.2011 01:25 -0,7 C 82 % 1092,9 hPa 0,0 mm W-SW 245 2,5 km/h (1 Bft)
16.04.2011 01:30 -0,9 C 82 % 1093,1 hPa 0,0 mm SW 231 2,5 km/h (1 Bft)
16.04.2011 01:35 -0,9 C 83 % 1093,0 hPa 0,0 mm SW 225 1,1 km/h (1 Bft)
16.04.2011 01:40 -0,8 C 83 % 1093,0 hPa 0,0 mm SW 225 1,1 km/h (1 Bft)
16.04.2011 01:45 -0,8 C 83 % 1092,8 hPa 0,0 mm SW 225 1,1 km/h (1 Bft)
16.04.2011 01:50 -0,8 C 83 % 1092,9 hPa 0,0 mm SW 225 1,1 km/h (1 Bft)
16.04.2011 01:55 -0,9 C 83 % 1092,8 hPa 0,0 mm SW 225 1,1 km/h (1 Bft)
16.04.2011 02:00 -0,9 C 83 % 1092,7 hPa 0,0 mm W-SW 240 2,5 km/h (1 Bft)
16.04.2011 02:05 -0,9 C 83 % 1092,8 hPa 0,0 mm W 260 2,5 km/h (1 Bft)
16.04.2011 02:10 -0,9 C 84 % 1092,7 hPa 0,0 mm W 270 2,5 km/h (1 Bft)
16.04.2011 02:15 -0,9 C 84 % 1092,7 hPa 0,0 mm W 270 2,5 km/h (1 Bft)
16.04.2011 02:20 -1,0 C 84 % 1092,6 hPa 0,0 mm N 0 0,0 km/h (0 Bft)
16.04.2011 02:25 -1,0 C 84 % 1093,0 hPa 0,0 mm N 0 0,0 km/h (0 Bft)
16.04.2011 02:30 -1,2 C 83 % 1092,8 hPa 0,0 mm N 0 0,0 km/h (0 Bft)
16.04.2011 02:35 -1,3 C 83 % 1092,9 hPa 0,0 mm N 0 0,0 km/h (0 Bft)
16.04.2011 02:40 -1,3 C 84 % 1093,0 hPa 0,0 mm SW 230 2,5 km/h (1 Bft)
16.04.2011 02:45 -1,3 C 84 % 1093,1 hPa 0,0 mm SW 228 2,5 km/h (1 Bft)
16.04.2011 02:50 -1,4 C 84 % 1093,0 hPa 0,0 mm W-SW 251 2,5 km/h (1 Bft)
16.04.2011 02:55 -1,4 C 84 % 1093,0 hPa 0,0 mm W 270 2,5 km/h (1 Bft)
16.04.2011 03:00 -1,5 C 84 % 1092,9 hPa 0,0 mm W 270 2,5 km/h (1 Bft)
16.04.2011 03:05 -1,5 C 84 % 1092,9 hPa 0,0 mm W 270 1,1 km/h (1 Bft)
16.04.2011 03:10 -1,5 C 84 % 1093,1 hPa 0,0 mm W 270 1,1 km/h (1 Bft)
16.04.2011 03:15 -1,5 C 84 % 1093,1 hPa 0,0 mm W 270 1,1 km/h (1 Bft)
16.04.2011 03:20 -1,5 C 84 % 1092,9 hPa 0,0 mm W 270 1,1 km/h (1 Bft)
16.04.2011 03:25 -1,5 C 84 % 1092,8 hPa 0,0 mm W 270 1,1 km/h (1 Bft)
16.04.2011 03:30 -1,5 C 85 % 1092,9 hPa 0,0 mm W-SW 239 2,5 km/h (1 Bft)
16.04.2011 03:35 -1,5 C 85 % 1092,7 hPa 0,0 mm SW 229 2,5 km/h (1 Bft)
16.04.2011 03:40 -1,5 C 85 % 1092,7 hPa 0,0 mm SW 225 2,5 km/h (1 Bft)
16.04.2011 03:45 -1,5 C 85 % 1092,8 hPa 0,0 mm SW 225 2,5 km/h (1 Bft)
16.04.2011 03:50 -1,6 C 85 % 1093,0 hPa 0,0 mm SW 225 2,5 km/h (1 Bft)
16.04.2011 03:55 -1,7 C 85 % 1092,9 hPa 0,0 mm SW 225 2,5 km/h (1 Bft)
16.04.2011 04:00 -1,7 C 85 % 1092,8 hPa 0,0 mm SW 225 1,1 km/h (1 Bft)
16.04.2011 04:05 -1,7 C 85 % 1092,9 hPa 0,0 mm SW 225 1,1 km/h (1 Bft)
16.04.2011 04:10 -1,7 C 85 % 1092,9 hPa 0,0 mm N 0 0,0 km/h (0 Bft)
16.04.2011 04:15 -1,8 C 85 % 1093,0 hPa 0,0 mm SW 225 1,1 km/h (1 Bft)
16.04.2011 04:20 -1,9 C 85 % 1092,9 hPa 0,0 mm SW 225 1,1 km/h (1 Bft)
16.04.2011 04:25 -2,0 C 85 % 1092,9 hPa 0,0 mm SW 225 1,1 km/h (1 Bft)
16.04.2011 04:30 -2,0 C 85 % 1092,7 hPa 0,0 mm SW 225 1,1 km/h (1 Bft)
16.04.2011 04:35 -2,1 C 85 % 1092,9 hPa 0,0 mm SW 225 1,1 km/h (1 Bft)
16.04.2011 04:40 -2,1 C 85 % 1093,0 hPa 0,0 mm SW 225 1,1 km/h (1 Bft)
16.04.2011 04:45 -2,1 C 85 % 1092,9 hPa 0,0 mm SW 225 1,1 km/h (1 Bft)
16.04.2011 04:50 -2,1 C 85 % 1092,8 hPa 0,0 mm SW 225 1,1 km/h (1 Bft)
16.04.2011 04:55 -2,1 C 85 % 1092,9 hPa 0,0 mm SW 225 1,1 km/h (1 Bft)
16.04.2011 05:00 -2,2 C 85 % 1093,0 hPa 0,0 mm SW 225 2,5 km/h (1 Bft)
16.04.2011 05:05 -2,2 C 85 % 1093,1 hPa 0,0 mm SW 225 2,5 km/h (1 Bft)
16.04.2011 05:10 -2,2 C 85 % 1093,1 hPa 0,0 mm SW 225 1,1 km/h (1 Bft)
16.04.2011 05:15 -2,3 C 85 % 1093,0 hPa 0,0 mm SW 225 1,1 km/h (1 Bft)
16.04.2011 05:20 -2,4 C 85 % 1093,0 hPa 0,0 mm SW 225 1,1 km/h (1 Bft)
16.04.2011 05:25 -2,4 C 85 % 1092,9 hPa 0,0 mm SW 225 1,1 km/h (1 Bft)
16.04.2011 05:30 -2,4 C 85 % 1092,8 hPa 0,0 mm W-SW 256 2,5 km/h (1 Bft)
16.04.2011 05:35 -2,5 C 85 % 1092,9 hPa 0,0 mm W 262 2,5 km/h (1 Bft)
16.04.2011 05:40 -2,5 C 85 % 1092,9 hPa 0,0 mm W 270 3,6 km/h (1 Bft)
16.04.2011 05:45 -2,4 C 85 % 1093,0 hPa 0,0 mm W 270 3,6 km/h (1 Bft)
16.04.2011 05:50 -2,5 C 85 % 1092,9 hPa 0,0 mm W 270 2,5 km/h (1 Bft)
16.04.2011 05:55 -2,5 C 85 % 1093,0 hPa 0,0 mm W 270 1,1 km/h (1 Bft)
16.04.2011 06:00 -2,5 C 85 % 1093,0 hPa 0,0 mm W 270 1,1 km/h (1 Bft)
16.04.2011 06:05 -2,5 C 85 % 1093,1 hPa 0,0 mm W 270 1,1 km/h (1 Bft)
16.04.2011 06:10 -2,5 C 86 % 1093,0 hPa 0,0 mm W 263 1,1 km/h (1 Bft)
16.04.2011 06:15 -2,5 C 86 % 1093,4 hPa 0,0 mm W-SW 243 1,1 km/h (1 Bft)
16.04.2011 06:20 -2,5 C 86 % 1093,5 hPa 0,0 mm SW 225 1,1 km/h (1 Bft)
16.04.2011 06:25 -2,6 C 86 % 1093,2 hPa 0,0 mm SW 225 1,1 km/h (1 Bft)
16.04.2011 06:30 -2,7 C 85 % 1093,3 hPa 0,0 mm SW 225 1,1 km/h (1 Bft)
16.04.2011 06:35 -2,6 C 86 % 1093,3 hPa 0,0 mm W-SW 249 2,5 km/h (1 Bft)
16.04.2011 06:40 -2,5 C 86 % 1093,3 hPa 0,0 mm W 262 2,5 km/h (1 Bft)
16.04.2011 06:45 -2,5 C 86 % 1093,3 hPa 0,0 mm W 270 2,5 km/h (1 Bft)
16.04.2011 06:50 -2,5 C 86 % 1093,3 hPa 0,0 mm W 270 2,5 km/h (1 Bft)
16.04.2011 06:55 -2,4 C 86 % 1093,3 hPa 0,0 mm W 270 1,1 km/h (1 Bft)
16.04.2011 07:00 -2,4 C 86 % 1093,3 hPa 0,0 mm W 270 1,1 km/h (1 Bft)
16.04.2011 07:05 -2,4 C 86 % 1093,5 hPa 0,0 mm W 270 1,1 km/h (1 Bft)
16.04.2011 07:10 -2,3 C 86 % 1093,6 hPa 0,0 mm W 263 1,1 km/h (1 Bft)
16.04.2011 07:15 -2,3 C 86 % 1093,5 hPa 0,0 mm W-SW 241 1,1 km/h (1 Bft)
16.04.2011 07:20 -2,2 C 86 % 1093,6 hPa 0,0 mm SW 225 2,5 km/h (1 Bft)
16.04.2011 07:25 -2,1 C 86 % 1093,7 hPa 0,0 mm SW 232 2,5 km/h (1 Bft)
16.04.2011 07:30 -2,0 C 86 % 1093,7 hPa 0,0 mm SW 232 2,5 km/h (1 Bft)
16.04.2011 07:35 -2,0 C 86 % 1093,5 hPa 0,0 mm W-SW 254 2,5 km/h (1 Bft)
16.04.2011 07:40 -2,0 C 86 % 1093,5 hPa 0,0 mm W 270 2,5 km/h (1 Bft)
16.04.2011 07:45 -1,8 C 86 % 1093,6 hPa 0,0 mm W 270 2,5 km/h (1 Bft)
16.04.2011 07:50 -1,6 C 86 % 1093,4 hPa 0,0 mm W 270 2,5 km/h (1 Bft)
16.04.2011 07:55 -1,4 C 86 % 1093,5 hPa 0,0 mm W-SW 256 2,5 km/h (1 Bft)
16.04.2011 08:00 -1,4 C 86 % 1093,4 hPa 0,0 mm W-SW 245 2,5 km/h (1 Bft)
16.04.2011 08:05 -1,4 C 86 % 1093,6 hPa 0,0 mm W 270 1,1 km/h (1 Bft)
16.04.2011 08:10 -0,9 C 87 % 1093,4 hPa 0,0 mm W 264 2,5 km/h (1 Bft)
16.04.2011 08:15 -0,6 C 87 % 1093,3 hPa 0,0 mm W-SW 245 2,5 km/h (1 Bft)
16.04.2011 08:20 -0,5 C 86 % 1093,1 hPa 0,0 mm SW 225 2,5 km/h (1 Bft)
16.04.2011 08:25 -0,2 C 87 % 1093,4 hPa 0,0 mm SW 225 2,5 km/h (1 Bft)
16.04.2011 08:30 0,3 C 87 % 1093,1 hPa 0,0 mm SW 225 2,5 km/h (1 Bft)
16.04.2011 08:35 0,8 C 87 % 1093,0 hPa 0,0 mm SW 225 2,5 km/h (1 Bft)
16.04.2011 08:40 1,3 C 87 % 1093,0 hPa 0,0 mm SW 225 2,5 km/h (1 Bft)
16.04.2011 08:45 1,6 C 86 % 1092,6 hPa 0,0 mm S-SW 202 5,0 km/h (1 Bft)
16.04.2011 08:50 2,0 C 86 % 1092,6 hPa 0,0 mm S-SW 201 5,0 km/h (1 Bft)
16.04.2011 08:55 2,2 C 85 % 1092,5 hPa 0,0 mm W-SW 239 3,6 km/h (1 Bft)
16.04.2011 09:00 2,5 C 85 % 1092,5 hPa 0,0 mm W 261 2,5 km/h (1 Bft)
16.04.2011 09:05 2,5 C 85 % 1092,5 hPa 0,0 mm W 270 2,5 km/h (1 Bft)
16.04.2011 09:10 3,8 C 85 % 1092,1 hPa 0,0 mm W-SW 258 2,5 km/h (1 Bft)
16.04.2011 09:15 4,3 C 84 % 1092,1 hPa 0,0 mm S-SO 150 5,0 km/h (1 Bft)
16.04.2011 09:20 4,8 C 84 % 1091,8 hPa 0,0 mm O-SO 118 5,0 km/h (1 Bft)
16.04.2011 09:25 5,7 C 84 % 1091,7 hPa 0,0 mm O 90 7,2 km/h (2 Bft)
16.04.2011 09:30 5,8 C 81 % 1091,6 hPa 0,0 mm O-SO 104 7,2 km/h (2 Bft)
16.04.2011 09:35 5,6 C 79 % 1091,7 hPa 0,0 mm O-SO 109 8,6 km/h (2 Bft)
16.04.2011 09:40 5,5 C 80 % 1091,7 hPa 0,0 mm O-SO 106 9,7 km/h (2 Bft)
16.04.2011 09:45 5,6 C 80 % 1091,5 hPa 0,0 mm O-SO 102 9,7 km/h (2 Bft)
16.04.2011 09:50 5,6 C 79 % 1091,7 hPa 0,0 mm O-SO 116 8,6 km/h (2 Bft)
16.04.2011 09:55 5,9 C 81 % 1091,8 hPa 0,0 mm SO 129 8,6 km/h (2 Bft)
16.04.2011 10:00 6,1 C 79 % 1091,6 hPa 0,0 mm O-SO 120 11,2 km/h (2 Bft)
16.04.2011 10:05 6,1 C 79 % 1091,7 hPa 0,0 mm SO 127 11,2 km/h (2 Bft)
16.04.2011 10:10 6,5 C 76 % 1091,5 hPa 0,0 mm SO 136 13,3 km/h (3 Bft)
16.04.2011 10:15 7,0 C 78 % 1091,2 hPa 0,0 mm SO 128 13,3 km/h (3 Bft)
16.04.2011 10:20 8,0 C 77 % 1091,1 hPa 0,0 mm O 99 13,3 km/h (3 Bft)
16.04.2011 10:25 8,6 C 74 % 1090,8 hPa 0,0 mm O 90 12,2 km/h (2 Bft)
16.04.2011 10:30 8,9 C 71 % 1090,7 hPa 0,0 mm O-SO 102 14,8 km/h (3 Bft)
16.04.2011 10:35 8,8 C 71 % 1090,7 hPa 0,0 mm O 95 14,8 km/h (3 Bft)
16.04.2011 10:40 9,2 C 69 % 1090,4 hPa 0,0 mm O 90 14,8 km/h (3 Bft)
16.04.2011 10:45 9,4 C 69 % 1090,6 hPa 0,0 mm O 91 14,8 km/h (3 Bft)
16.04.2011 10:50 9,4 C 68 % 1090,6 hPa 0,0 mm O 89 14,8 km/h (3 Bft)
16.04.2011 10:55 9,6 C 68 % 1090,4 hPa 0,0 mm O 87 13,3 km/h (3 Bft)
16.04.2011 11:00 9,7 C 66 % 1090,3 hPa 0,0 mm O 90 15,8 km/h (3 Bft)
16.04.2011 11:05 9,7 C 66 % 1090,3 hPa 0,0 mm O-SO 117 15,8 km/h (3 Bft)
16.04.2011 11:10 10,1 C 65 % 1090,2 hPa 0,0 mm SO 132 14,8 km/h (3 Bft)
16.04.2011 11:15 10,3 C 65 % 1090,1 hPa 0,0 mm O-SO 118 14,8 km/h (3 Bft)
16.04.2011 11:20 10,5 C 65 % 1090,0 hPa 0,0 mm O 101 14,8 km/h (3 Bft)
16.04.2011 11:25 10,9 C 64 % 1089,9 hPa 0,0 mm O 94 18,4 km/h (3 Bft)
16.04.2011 11:30 10,8 C 61 % 1090,0 hPa 0,0 mm O 96 18,4 km/h (3 Bft)
16.04.2011 11:35 10,7 C 62 % 1090,0 hPa 0,0 mm O 93 15,8 km/h (3 Bft)
16.04.2011 11:40 11,0 C 61 % 1090,1 hPa 0,0 mm O-NO 77 14,8 km/h (3 Bft)
16.04.2011 11:45 11,0 C 61 % 1090,2 hPa 0,0 mm O 91 15,8 km/h (3 Bft)
16.04.2011 11:50 11,4 C 60 % 1089,7 hPa 0,0 mm O 98 15,8 km/h (3 Bft)
16.04.2011 11:55 11,4 C 59 % 1090,0 hPa 0,0 mm O-NO 76 15,8 km/h (3 Bft)
16.04.2011 12:00 11,5 C 59 % 1090,0 hPa 0,0 mm O 88 14,8 km/h (3 Bft)
16.04.2011 12:05 11,5 C 59 % 1090,0 hPa 0,0 mm O-SO 120 14,8 km/h (3 Bft)
16.04.2011 12:10 11,3 C 61 % 1090,0 hPa 0,0 mm O-SO 121 13,3 km/h (3 Bft)
16.04.2011 12:15 11,1 C 58 % 1090,1 hPa 0,0 mm O-NO 74 14,8 km/h (3 Bft)
16.04.2011 12:20 11,3 C 57 % 1090,0 hPa 0,0 mm NO 46 14,8 km/h (3 Bft)
16.04.2011 12:25 11,6 C 57 % 1090,0 hPa 0,0 mm O-NO 65 14,8 km/h (3 Bft)
16.04.2011 12:30 11,8 C 60 % 1089,7 hPa 0,0 mm O 97 14,8 km/h (3 Bft)
16.04.2011 12:35 12,0 C 56 % 1089,8 hPa 0,0 mm O-SO 116 19,4 km/h (3 Bft)
16.04.2011 12:40 11,5 C 56 % 1089,8 hPa 0,0 mm O-SO 115 19,4 km/h (3 Bft)
16.04.2011 12:45 11,6 C 58 % 1089,7 hPa 0,0 mm O-SO 106 17,3 km/h (3 Bft)
16.04.2011 12:50 11,3 C 57 % 1089,9 hPa 0,0 mm O 91 17,3 km/h (3 Bft)
16.04.2011 12:55 10,9 C 57 % 1089,9 hPa 0,0 mm O-SO 113 14,8 km/h (3 Bft)
16.04.2011 13:00 10,9 C 57 % 1089,9 hPa 0,0 mm O-SO 123 14,8 km/h (3 Bft)
16.04.2011 13:05 10,9 C 57 % 1089,9 hPa 0,0 mm O 100 14,8 km/h (3 Bft)
16.04.2011 13:10 10,9 C 56 % 1089,8 hPa 0,0 mm O-SO 103 14,8 km/h (3 Bft)
16.04.2011 13:15 11,0 C 55 % 1090,1 hPa 0,0 mm O-SO 118 14,8 km/h (3 Bft)
16.04.2011 13:20 11,3 C 55 % 1090,0 hPa 0,0 mm O-SO 105 14,8 km/h (3 Bft)
16.04.2011 13:25 11,2 C 56 % 1089,9 hPa 0,0 mm O-NO 74 15,8 km/h (3 Bft)
16.04.2011 13:30 11,0 C 56 % 1089,8 hPa 0,0 mm O 88 15,8 km/h (3 Bft)
16.04.2011 13:35 10,9 C 55 % 1089,9 hPa 0,0 mm O-SO 109 15,8 km/h (3 Bft)
16.04.2011 13:40 10,8 C 53 % 1090,0 hPa 0,0 mm O 90 15,8 km/h (3 Bft)
16.04.2011 13:45 10,7 C 55 % 1090,0 hPa 0,0 mm O 99 17,3 km/h (3 Bft)
16.04.2011 13:50 10,7 C 54 % 1090,2 hPa 0,0 mm O-SO 114 18,4 km/h (3 Bft)
16.04.2011 13:55 10,7 C 56 % 1090,0 hPa 0,0 mm O-SO 109 18,4 km/h (3 Bft)
16.04.2011 14:00 10,8 C 54 % 1090,0 hPa 0,3 mm O-SO 112 18,4 km/h (3 Bft)
16.04.2011 14:05 10,8 C 54 % 1090,1 hPa 0,0 mm O 101 14,8 km/h (3 Bft)
16.04.2011 14:10 10,9 C 52 % 1089,9 hPa 0,0 mm O 90 17,3 km/h (3 Bft)
16.04.2011 14:15 10,8 C 51 % 1090,2 hPa 0,0 mm O 98 18,4 km/h (3 Bft)
16.04.2011 14:20 10,9 C 51 % 1090,2 hPa 0,0 mm O 97 18,4 km/h (3 Bft)
16.04.2011 14:25 10,8 C 52 % 1090,2 hPa 0,0 mm O 80 15,8 km/h (3 Bft)
16.04.2011 14:30 10,8 C 51 % 1089,9 hPa 0,0 mm O 90 17,3 km/h (3 Bft)
16.04.2011 14:35 10,8 C 51 % 1090,2 hPa 0,0 mm O 100 17,3 km/h (3 Bft)
16.04.2011 14:40 10,9 C 51 % 1090,1 hPa 0,0 mm O 86 15,8 km/h (3 Bft)
16.04.2011 14:45 10,9 C 51 % 1090,1 hPa 0,0 mm O-NO 66 15,8 km/h (3 Bft)
16.04.2011 14:50 10,9 C 50 % 1090,2 hPa 0,0 mm NO 49 15,8 km/h (3 Bft)
16.04.2011 14:55 10,8 C 51 % 1090,1 hPa 0,0 mm NO 53 14,8 km/h (3 Bft)
16.04.2011 15:00 11,0 C 53 % 1090,2 hPa 0,0 mm O-NO 77 14,8 km/h (3 Bft)
16.04.2011 15:05 11,0 C 53 % 1090,1 hPa 0,0 mm O 92 13,3 km/h (3 Bft)
16.04.2011 15:10 10,8 C 50 % 1090,1 hPa 0,0 mm O 90 14,8 km/h (3 Bft)
16.04.2011 15:15 10,7 C 52 % 1090,0 hPa 0,0 mm O 97 17,3 km/h (3 Bft)
16.04.2011 15:20 10,8 C 52 % 1090,0 hPa 0,0 mm O-SO 106 17,3 km/h (3 Bft)
16.04.2011 15:25 10,8 C 53 % 1090,1 hPa 0,0 mm O-NO 78 13,3 km/h (3 Bft)
16.04.2011 15:30 10,7 C 51 % 1090,2 hPa 0,0 mm O 88 15,8 km/h (3 Bft)
16.04.2011 15:35 10,6 C 51 % 1090,0 hPa 0,0 mm O-SO 109 15,8 km/h (3 Bft)
16.04.2011 15:40 10,5 C 51 % 1090,1 hPa 0,0 mm SO 125 17,3 km/h (3 Bft)
16.04.2011 15:45 10,5 C 51 % 1089,7 hPa 0,0 mm O-SO 114 17,3 km/h (3 Bft)
16.04.2011 15:50 10,5 C 52 % 1090,1 hPa 0,0 mm O 91 14,8 km/h (3 Bft)
16.04.2011 15:55 10,5 C 52 % 1090,1 hPa 0,0 mm O 97 14,8 km/h (3 Bft)
16.04.2011 16:00 10,5 C 52 % 1090,0 hPa 0,0 mm O 98 15,8 km/h (3 Bft)
16.04.2011 16:05 10,5 C 52 % 1090,1 hPa 0,0 mm O 94 15,8 km/h (3 Bft)
16.04.2011 16:10 10,4 C 50 % 1090,1 hPa 0,0 mm O 90 14,8 km/h (3 Bft)
16.04.2011 16:15 10,4 C 50 % 1090,0 hPa 0,0 mm O 97 14,8 km/h (3 Bft)
16.04.2011 16:20 10,3 C 49 % 1089,8 hPa 0,0 mm O-SO 103 17,3 km/h (3 Bft)
16.04.2011 16:25 10,4 C 49 % 1089,8 hPa 0,0 mm O 99 17,3 km/h (3 Bft)
16.04.2011 16:30 10,4 C 50 % 1090,1 hPa 0,0 mm O-SO 110 15,8 km/h (3 Bft)
16.04.2011 16:35 10,5 C 50 % 1090,0 hPa 0,0 mm O-SO 120 15,8 km/h (3 Bft)
16.04.2011 16:40 10,4 C 49 % 1089,8 hPa 0,0 mm O 100 17,3 km/h (3 Bft)
16.04.2011 16:45 10,4 C 51 % 1090,1 hPa 0,0 mm O 86 17,3 km/h (3 Bft)
16.04.2011 16:50 10,4 C 49 % 1090,0 hPa 0,0 mm O-SO 107 17,3 km/h (3 Bft)
16.04.2011 16:55 10,4 C 50 % 1089,9 hPa 0,0 mm SO 127 12,2 km/h (2 Bft)
16.04.2011 17:00 10,4 C 47 % 1090,1 hPa 0,0 mm SO 129 13,3 km/h (3 Bft)
16.04.2011 17:05 10,4 C 47 % 1090,0 hPa 0,0 mm SO 135 13,3 km/h (3 Bft)
16.04.2011 17:10 10,4 C 46 % 1090,0 hPa 0,0 mm SO 131 11,2 km/h (2 Bft)
16.04.2011 17:15 10,5 C 45 % 1090,0 hPa 0,0 mm O-SO 116 11,2 km/h (2 Bft)
16.04.2011 17:20 10,5 C 45 % 1090,2 hPa 0,0 mm O 100 11,2 km/h (2 Bft)
16.04.2011 17:25 10,5 C 44 % 1090,1 hPa 0,0 mm O-SO 102 12,2 km/h (2 Bft)
16.04.2011 17:30 10,4 C 44 % 1090,0 hPa 0,0 mm O-SO 109 12,2 km/h (2 Bft)
16.04.2011 17:35 10,4 C 44 % 1090,0 hPa 0,0 mm SO 126 12,2 km/h (2 Bft)
16.04.2011 17:40 10,4 C 44 % 1090,2 hPa 0,0 mm SO 129 12,2 km/h (2 Bft)
16.04.2011 17:45 10,4 C 43 % 1090,2 hPa 0,0 mm O-SO 108 11,2 km/h (2 Bft)
16.04.2011 17:50 10,3 C 45 % 1090,3 hPa 0,0 mm O 93 11,2 km/h (2 Bft)
16.04.2011 17:55 10,3 C 43 % 1090,2 hPa 0,0 mm O 99 11,2 km/h (2 Bft)
16.04.2011 18:00 10,2 C 44 % 1090,2 hPa 0,0 mm O-SO 107 9,7 km/h (2 Bft)
16.04.2011 18:05 10,2 C 44 % 1090,1 hPa 0,0 mm O 97 9,7 km/h (2 Bft)
16.04.2011 18:10 10,2 C 46 % 1090,2 hPa 0,0 mm O 86 9,7 km/h (2 Bft)
16.04.2011 18:15 10,1 C 46 % 1090,3 hPa 0,0 mm O 83 9,7 km/h (2 Bft)
16.04.2011 18:20 10,1 C 48 % 1090,4 hPa 0,0 mm O 84 8,6 km/h (2 Bft)
16.04.2011 18:25 10,0 C 47 % 1090,4 hPa 0,0 mm O-NO 66 8,6 km/h (2 Bft)
16.04.2011 18:30 10,0 C 47 % 1090,4 hPa 0,0 mm NO 55 8,6 km/h (2 Bft)
16.04.2011 18:35 9,9 C 49 % 1090,3 hPa 0,0 mm O-NO 67 8,6 km/h (2 Bft)
16.04.2011 18:40 9,7 C 51 % 1090,5 hPa 0,0 mm O-NO 61 8,6 km/h (2 Bft)
16.04.2011 18:45 9,6 C 49 % 1090,5 hPa 0,0 mm NO 43 9,7 km/h (2 Bft)
16.04.2011 18:50 9,5 C 51 % 1090,5 hPa 0,0 mm NO 53 9,7 km/h (2 Bft)
16.04.2011 18:55 9,4 C 51 % 1090,8 hPa 0,0 mm O-NO 61 9,7 km/h (2 Bft)
16.04.2011 19:00 9,3 C 52 % 1090,7 hPa 0,0 mm NO 45 3,6 km/h (1 Bft)
16.04.2011 19:05 9,3 C 52 % 1090,8 hPa 0,0 mm NO 45 3,6 km/h (1 Bft)
16.04.2011 19:10 9,1 C 53 % 1090,7 hPa 0,0 mm O-NO 58 5,0 km/h (1 Bft)
16.04.2011 19:15 9,0 C 54 % 1090,7 hPa 0,0 mm O 79 5,0 km/h (1 Bft)
16.04.2011 19:20 8,9 C 54 % 1090,9 hPa 0,0 mm O 90 2,5 km/h (1 Bft)
16.04.2011 19:25 8,9 C 55 % 1090,9 hPa 0,0 mm O 90 2,5 km/h (1 Bft)
16.04.2011 19:30 8,8 C 55 % 1090,9 hPa 0,0 mm O 90 2,5 km/h (1 Bft)
16.04.2011 19:35 8,6 C 57 % 1091,0 hPa 0,0 mm O 90 2,5 km/h (1 Bft)
16.04.2011 19:40 8,5 C 57 % 1091,0 hPa 0,0 mm O 90 2,5 km/h (1 Bft)
16.04.2011 19:45 8,5 C 57 % 1091,1 hPa 0,0 mm O 90 2,5 km/h (1 Bft)
16.04.2011 19:50 8,3 C 58 % 1091,3 hPa 0,0 mm O 90 2,5 km/h (1 Bft)
16.04.2011 19:55 7,9 C 60 % 1091,3 hPa 0,0 mm O 90 1,1 km/h (1 Bft)
16.04.2011 20:00 7,6 C 61 % 1091,4 hPa 0,0 mm O 90 1,1 km/h (1 Bft)
16.04.2011 20:05 7,6 C 61 % 1091,3 hPa 0,0 mm O 90 1,1 km/h (1 Bft)
16.04.2011 20:10 7,4 C 60 % 1091,5 hPa 0,0 mm O 90 1,1 km/h (1 Bft)
16.04.2011 20:15 7,4 C 60 % 1091,6 hPa 0,0 mm O 90 1,1 km/h (1 Bft)
16.04.2011 20:20 7,4 C 61 % 1091,7 hPa 0,0 mm O 90 1,1 km/h (1 Bft)
16.04.2011 20:25 7,3 C 61 % 1091,8 hPa 0,0 mm N 0 0,0 km/h (0 Bft)
16.04.2011 20:30 7,3 C 60 % 1091,7 hPa 0,0 mm N 0 0,0 km/h (0 Bft)
16.04.2011 20:35 7,2 C 62 % 1092,0 hPa 0,0 mm N 0 0,0 km/h (0 Bft)
16.04.2011 20:40 7,0 C 63 % 1091,8 hPa 0,0 mm O 90 1,1 km/h (1 Bft)
16.04.2011 20:45 6,9 C 64 % 1091,9 hPa 0,0 mm O 90 1,1 km/h (1 Bft)
16.04.2011 20:50 6,9 C 64 % 1092,0 hPa 0,0 mm O 90 1,1 km/h (1 Bft)
16.04.2011 20:55 6,9 C 64 % 1092,3 hPa 0,0 mm O 90 1,1 km/h (1 Bft)
16.04.2011 21:00 7,0 C 64 % 1092,1 hPa 0,0 mm O 90 2,5 km/h (1 Bft)
16.04.2011 21:05 7,0 C 64 % 1092,0 hPa 0,0 mm O 90 2,5 km/h (1 Bft)
16.04.2011 21:10 6,5 C 67 % 1092,1 hPa 0,0 mm O 90 2,5 km/h (1 Bft)
16.04.2011 21:15 6,4 C 68 % 1092,3 hPa 0,0 mm O 90 2,5 km/h (1 Bft)
16.04.2011 21:20 6,3 C 68 % 1092,4 hPa 0,0 mm O 90 1,1 km/h (1 Bft)
16.04.2011 21:25 6,2 C 69 % 1092,1 hPa 0,0 mm O 90 1,1 km/h (1 Bft)
16.04.2011 21:30 6,1 C 69 % 1092,4 hPa 0,0 mm O 90 1,1 km/h (1 Bft)
16.04.2011 21:35 6,1 C 69 % 1092,5 hPa 0,0 mm O 90 1,1 km/h (1 Bft)
16.04.2011 21:40 6,2 C 69 % 1092,4 hPa 0,0 mm O 90 2,5 km/h (1 Bft)
16.04.2011 21:45 6,2 C 68 % 1092,3 hPa 0,0 mm O 90 2,5 km/h (1 Bft)
16.04.2011 21:50 6,0 C 68 % 1092,4 hPa 0,0 mm O 90 2,5 km/h (1 Bft)
16.04.2011 21:55 5,6 C 69 % 1092,5 hPa 0,0 mm N 0 0,0 km/h (0 Bft)
16.04.2011 22:00 5,3 C 69 % 1092,6 hPa 0,0 mm O 90 1,1 km/h (1 Bft)
16.04.2011 22:05 5,3 C 69 % 1092,6 hPa 0,0 mm O 90 1,1 km/h (1 Bft)
16.04.2011 22:10 5,1 C 69 % 1092,7 hPa 0,0 mm O 90 1,1 km/h (1 Bft)
16.04.2011 22:15 5,1 C 69 % 1092,7 hPa 0,0 mm O 90 1,1 km/h (1 Bft)
16.04.2011 22:20 5,2 C 69 % 1092,7 hPa 0,0 mm O 90 1,1 km/h (1 Bft)
16.04.2011 22:25 5,0 C 69 % 1092,6 hPa 0,0 mm O 90 1,1 km/h (1 Bft)
16.04.2011 22:30 4,7 C 69 % 1092,9 hPa 0,0 mm O 90 2,5 km/h (1 Bft)
16.04.2011 22:35 4,5 C 70 % 1092,7 hPa 0,0 mm O 90 2,5 km/h (1 Bft)
16.04.2011 22:40 4,3 C 71 % 1092,8 hPa 0,0 mm W 270 3,6 km/h (1 Bft)
16.04.2011 22:45 4,1 C 72 % 1093,0 hPa 0,0 mm W 270 5,0 km/h (1 Bft)
16.04.2011 22:50 4,1 C 72 % 1093,0 hPa 0,0 mm W 270 5,0 km/h (1 Bft)
16.04.2011 22:55 4,1 C 72 % 1093,2 hPa 0,0 mm W 270 5,0 km/h (1 Bft)
16.04.2011 23:00 4,1 C 72 % 1093,1 hPa 0,0 mm W 270 2,5 km/h (1 Bft)
16.04.2011 23:05 4,1 C 72 % 1093,1 hPa 0,0 mm W 270 2,5 km/h (1 Bft)
16.04.2011 23:10 3,8 C 72 % 1093,3 hPa 0,0 mm W 270 2,5 km/h (1 Bft)
16.04.2011 23:15 3,4 C 72 % 1093,5 hPa 0,0 mm W 270 2,5 km/h (1 Bft)
16.04.2011 23:20 3,2 C 73 % 1093,3 hPa 0,0 mm W 270 1,1 km/h (1 Bft)
16.04.2011 23:25 3,1 C 73 % 1093,4 hPa 0,0 mm N 0 0,0 km/h (0 Bft)
16.04.2011 23:30 2,9 C 74 % 1093,6 hPa 0,0 mm N 0 0,0 km/h (0 Bft)
16.04.2011 23:35 2,8 C 75 % 1093,5 hPa 0,0 mm N 0 0,0 km/h (0 Bft)
16.04.2011 23:40 2,8 C 75 % 1093,4 hPa 0,0 mm W 270 2,5 km/h (1 Bft)
16.04.2011 23:45 2,7 C 76 % 1093,5 hPa 0,0 mm W 270 2,5 km/h (1 Bft)
16.04.2011 23:50 2,6 C 76 % 1093,8 hPa 0,0 mm W 270 2,5 km/h (1 Bft)
16.04.2011 23:55 2,5 C 76 % 1093,8 hPa 0,0 mm W 270 2,5 km/h (1 Bft)
_ Min-Zeit 06:30 17:45 11:50 - - - 02:20
Minimum _ -2,7 C 43 % 1089,7 hPa - - - 0,0 km/h (0 Bft)
_ Max-Zeit 12:35 08:10 23:50 14:00 - - 12:35
Maximum _ 12,0 C 87 % 1093,8 hPa 0,3 mm - - 19,4 km/h
O-SO (3 Bft)
Durchschnitt _ 4,8 C 69 % 1091,7 hPa #0,3 mm O - 6,8 km/h (2 Bft)